Left ArrowRight Arrow

Hourly Observations for February 11, 2017

Temp ( °F °C ) Dew Point ( °F °C ) Humidity (%) Winds ( mph kmh ) Pressure ( in mb ) Visibility ( mi km ) Precip ( " mm )
12:53 am 00:53 Clear 55 12.8 25 -3.9 31 31 SW 9 15 30.04 1017 10 16 0.00 0.00
1:53 am 01:53 Clear 54 12.2 26 -3.3 34 34 SW 13 20 30.04 1017 10 16 0.00 0.00
2:53 am 02:53 Mostly Clear 54 12.2 27 -2.8 35 35 SW 9 15 30.05 1018 10 16 0.00 0.00
3:53 am 03:53 Cloudy 54 12.2 28 -2.2 37 37 SSW 9 15 30.04 1017 10 16 0.00 0.00
4:53 am 04:53 Cloudy 54 12.2 30 -1.1 40 40 SSW 9 15 30.04 1017 10 16 0.00 0.00
5:53 am 05:53 Cloudy 55 12.8 32 0 42 42 SSW 12 19 30.03 1017 10 16 0.00 0.00
6:53 am 06:53 Cloudy 56 13.3 35 1.7 46 46 SW 8 13 30.04 1017 10 16 0.00 0.00
7:53 am 07:53 Cloudy 56 13.3 37 2.8 49 49 SSW 8 13 30.05 1018 10 16 0.00 0.00
8:53 am 08:53 Cloudy 56 13.3 39 3.9 53 53 SW 7 11 30.06 1018 10 16 0.00 0.00
9:18 am 09:18 Cloudy 56 13.3 40 4.4 55 55 SSW 9 15 30.09 1019 10 16 0.00 0.00
9:53 am 09:53 Cloudy 57 13.9 41 5 55 55 SSW 10 17 30.06 1018 10 16 0.00 0.00
10:17 am 10:17 Cloudy 58 14.4 43 6.1 58 58 SSW 9 15 30.06 1018 10 16 0.00 0.00
10:51 am 10:51 Cloudy 57 14 45 7 63 63 SW 8 13 30.09 1019 10 16 0.00 0.00
10:53 am 10:53 Cloudy 58 14.4 45 7.2 62 62 SW 9 15 30.07 1018 10 16 0.00 0.00
11:53 am 11:53 Cloudy 59 15 47 8.3 64 64 SSW 9 15 30.07 1018 10 16 0.00 0.00
12:53 pm 12:53 Cloudy 57 13.9 50 10 78 78 SW 5 7 30.06 1018 10 16 0.00 0.03
1:53 pm 13:53 Cloudy 58 14.4 50 10 75 75 SSW 9 15 30.04 1017 10 16 0.00 0.03
2:05 pm 14:05 Cloudy 57 13.9 50 10 78 78 S 12 19 30.03 1017 10 16 0.00 0.00
2:53 pm 14:53 Cloudy 57 13.9 51 10.6 81 81 S 7 11 30.01 1016 10 16 0.00 0.00
3:37 pm 15:37 Cloudy 56 13.3 50 10 81 81 S 7 11 30.03 1017 10 16 0.00 0.00
3:53 pm 15:53 Cloudy 57 13.9 50 10 78 78 S 5 7 30.01 1016 10 16 0.00 0.00
4:53 pm 16:53 Cloudy 59 15 50 10 72 72 S 5 7 29.99 1016 10 16 0.00 0.00
5:53 pm 17:53 Cloudy 59 15 51 10.6 75 75 Calm 29.99 1016 10 16 0.00 0.00
6:10 pm 18:10 Cloudy 59 15 51 10.6 75 75 SSE 5 7 30.00 1016 10 16 0.00 0.00
6:25 pm 18:25 Cloudy 59 15 51 10.6 75 75 S 5 7 30.00 1016 10 16 0.00 0.00
6:53 pm 18:53 Cloudy 59 15 50 10 72 72 S 6 9 29.99 1016 10 16 0.00 0.00
7:53 pm 19:53 Cloudy 59 15 51 10.6 75 75 S 9 15 29.98 1015 10 16 0.00 0.00
8:53 pm 20:53 Cloudy 59 15 51 10.6 75 75 S 9 15 29.97 1015 10 16 0.00 0.00
9:53 pm 21:53 Cloudy 59 15 52 11.1 78 78 S 5 7 29.98 1015 10 16 0.00 0.00
10:53 pm 22:53 Cloudy 59 15 52 11.1 78 78 SSE 5 7 29.96 1015 10 16 0.00 0.00
11:53 pm 23:53 Cloudy 61 16.1 54 12.2 78 78 SSW 9 15 29.95 1014 10 16 0.00 0.00

Powered by Vaisala Xweather